Time,TemperatureF,DewpointF,PressureIn,WindDirection,WindDirectionDegrees,WindSpeedMPH,WindSpeedGustMPH,Humidity,HourlyPrecipIn,Conditions,Clouds,dailyrainin,SoftwareType,DateUTC
2014-01-08 00:02:00,44.6,32.4,30.14,ENE,77,0.0,0.0,62,0.00,,,0.00,WeatherCatV1.24B11,2014-01-08 08:02:00,
2014-01-08 00:07:00,44.3,32.5,30.14,ENE,77,0.0,0.0,63,0.00,,,0.00,WeatherCatV1.24B11,2014-01-08 08:07:00,
2014-01-08 00:12:00,44.3,32.1,30.14,ENE,76,0.0,0.0,62,0.00,,,0.00,WeatherCatV1.24B11,2014-01-08 08:12:00,
2014-01-08 00:17:00,44.4,32.6,30.14,ENE,76,0.0,0.0,63,0.00,,,0.00,WeatherCatV1.24B11,2014-01-08 08:17:00,
2014-01-08 00:22:00,44.3,32.1,30.14,ENE,77,0.0,0.0,62,0.00,,,0.00,WeatherCatV1.24B11,2014-01-08 08:22:00,
2014-01-08 00:27:00,44.4,31.8,30.14,ENE,76,0.0,0.0,61,0.00,,,0.00,WeatherCatV1.24B11,2014-01-08 08:27:00,
2014-01-08 00:32:00,44.8,31.8,30.14,ENE,77,0.0,0.0,60,0.00,,,0.00,WeatherCatV1.24B11,2014-01-08 08:32:00,
2014-01-08 00:37:00,45.0,32.0,30.14,ENE,77,0.0,0.0,60,0.00,,,0.00,WeatherCatV1.24B11,2014-01-08 08:37:00,
2014-01-08 00:42:00,45.2,31.7,30.14,ENE,75,0.0,1.0,59,0.00,,,0.00,WeatherCatV1.24B11,2014-01-08 08:42:00,
2014-01-08 00:47:00,45.3,31.8,30.13,ENE,75,0.0,1.0,59,0.00,,,0.00,WeatherCatV1.24B11,2014-01-08 08:47:00,
2014-01-08 00:52:00,45.2,31.7,30.13,ENE,75,0.0,0.0,59,0.00,,,0.00,WeatherCatV1.24B11,2014-01-08 08:52:00,
2014-01-08 00:57:00,45.0,32.4,30.13,ENE,75,0.0,0.0,61,0.00,,,0.00,WeatherCatV1.24B11,2014-01-08 08:57:00,
2014-01-08 01:02:00,44.7,32.1,30.13,ENE,75,0.0,0.0,61,0.00,,,0.00,WeatherCatV1.24B11,2014-01-08 09:02:00,
2014-01-08 01:07:00,44.3,31.3,30.12,ENE,75,0.0,1.0,60,0.00,,,0.00,WeatherCatV1.24B11,2014-01-08 09:07:00,
2014-01-08 01:12:00,44.1,31.9,30.13,ENE,75,0.0,0.0,62,0.00,,,0.00,WeatherCatV1.24B11,2014-01-08 09:12:00,
2014-01-08 01:17:00,43.7,31.9,30.12,ENE,75,0.0,0.0,63,0.00,,,0.00,WeatherCatV1.24B11,2014-01-08 09:17:00,
2014-01-08 01:22:00,43.4,31.7,30.12,ENE,75,0.0,0.0,63,0.00,,,0.00,WeatherCatV1.24B11,2014-01-08 09:22:00,
2014-01-08 01:27:00,43.2,31.5,30.12,ENE,75,0.0,0.0,63,0.00,,,0.00,WeatherCatV1.24B11,2014-01-08 09:27:00,
2014-01-08 01:32:00,43.3,31.2,30.12,ENE,75,0.0,0.0,62,0.00,,,0.00,WeatherCatV1.24B11,2014-01-08 09:32:00,
2014-01-08 01:37:00,43.6,31.0,30.12,ENE,75,0.0,1.0,61,0.00,,,0.00,WeatherCatV1.24B11,2014-01-08 09:37:00,
2014-01-08 01:42:00,43.7,31.5,30.12,ENE,75,0.0,0.0,62,0.00,,,0.00,WeatherCatV1.24B11,2014-01-08 09:42:00,
2014-01-08 01:47:00,43.8,31.2,30.12,ENE,75,0.0,0.0,61,0.00,,,0.00,WeatherCatV1.24B11,2014-01-08 09:47:00,
2014-01-08 01:52:00,44.1,31.1,30.12,ENE,75,0.0,0.0,60,0.00,,,0.00,WeatherCatV1.24B11,2014-01-08 09:52:00,
2014-01-08 01:57:00,44.5,31.5,30.12,ENE,75,0.0,0.0,60,0.00,,,0.00,WeatherCatV1.24B11,2014-01-08 09:57:00,
2014-01-08 02:02:00,44.8,31.4,30.12,ENE,75,0.0,0.0,59,0.00,,,0.00,WeatherCatV1.24B11,2014-01-08 10:02:00,
2014-01-08 02:07:00,45.0,31.5,30.12,ENE,75,0.0,0.0,59,0.00,,,0.00,WeatherCatV1.24B11,2014-01-08 10:07:00,
2014-01-08 02:12:00,45.0,32.0,30.12,ENE,75,0.0,0.0,60,0.00,,,0.00,WeatherCatV1.24B11,2014-01-08 10:12:00,
2014-01-08 02:17:00,44.7,32.1,30.12,ENE,75,0.0,0.0,61,0.00,,,0.00,WeatherCatV1.24B11,2014-01-08 10:17:00,
2014-01-08 02:22:00,44.1,31.5,30.12,ENE,75,0.0,0.0,61,0.00,,,0.00,WeatherCatV1.24B11,2014-01-08 10:22:00,
2014-01-08 02:27:00,43.8,32.0,30.12,ENE,75,0.0,0.0,63,0.00,,,0.00,WeatherCatV1.24B11,2014-01-08 10:27:00,
2014-01-08 02:32:00,43.8,32.0,30.12,ENE,75,0.0,0.0,63,0.00,,,0.00,WeatherCatV1.24B11,2014-01-08 10:32:00,
2014-01-08 02:37:00,43.7,31.9,30.12,ENE,75,0.0,0.0,63,0.00,,,0.00,WeatherCatV1.24B11,2014-01-08 10:37:00,
2014-01-08 02:42:00,43.8,32.0,30.12,ENE,75,0.0,0.0,63,0.00,,,0.00,WeatherCatV1.24B11,2014-01-08 10:42:00,
2014-01-08 02:47:00,43.8,32.0,30.12,ENE,75,0.0,0.0,63,0.00,,,0.00,WeatherCatV1.24B11,2014-01-08 10:47:00,
2014-01-08 02:52:00,44.1,31.9,30.12,ENE,75,0.0,0.0,62,0.00,,,0.00,WeatherCatV1.24B11,2014-01-08 10:52:00,
2014-01-08 02:57:00,44.3,32.1,30.12,ENE,75,0.0,0.0,62,0.00,,,0.00,WeatherCatV1.24B11,2014-01-08 10:57:00,
2014-01-08 03:02:00,44.4,31.8,30.12,ENE,75,0.0,0.0,61,0.00,,,0.00,WeatherCatV1.24B11,2014-01-08 11:02:00,
2014-01-08 03:07:00,44.6,32.4,30.12,ENE,75,0.0,0.0,62,0.00,,,0.00,WeatherCatV1.24B11,2014-01-08 11:07:00,
2014-01-08 03:12:00,44.5,32.7,30.12,ENE,75,0.0,0.0,63,0.00,,,0.00,WeatherCatV1.24B11,2014-01-08 11:12:00,
2014-01-08 03:17:00,44.5,32.7,30.11,ENE,75,0.0,0.0,63,0.00,,,0.00,WeatherCatV1.24B11,2014-01-08 11:17:00,
2014-01-08 03:22:00,44.8,32.6,30.11,ENE,75,0.0,0.0,62,0.00,,,0.00,WeatherCatV1.24B11,2014-01-08 11:22:00,
2014-01-08 03:27:00,45.1,32.5,30.11,ENE,75,0.0,0.0,61,0.00,,,0.00,WeatherCatV1.24B11,2014-01-08 11:27:00,
2014-01-08 03:32:00,45.4,32.3,30.11,ENE,75,0.0,0.0,60,0.00,,,0.00,WeatherCatV1.24B11,2014-01-08 11:32:00,
2014-01-08 03:37:00,45.5,32.4,30.11,ENE,75,0.0,0.0,60,0.00,,,0.00,WeatherCatV1.24B11,2014-01-08 11:37:00,
2014-01-08 03:42:00,45.5,32.8,30.11,ENE,75,0.0,0.0,61,0.00,,,0.00,WeatherCatV1.24B11,2014-01-08 11:42:00,
2014-01-08 03:47:00,45.5,32.8,30.11,ENE,75,0.0,0.0,61,0.00,,,0.00,WeatherCatV1.24B11,2014-01-08 11:47:00,
2014-01-08 03:52:00,45.4,33.2,30.11,ENE,75,0.0,0.0,62,0.00,,,0.00,WeatherCatV1.24B11,2014-01-08 11:52:00,
2014-01-08 03:57:00,45.2,33.0,30.11,ENE,75,0.0,0.0,62,0.00,,,0.00,WeatherCatV1.24B11,2014-01-08 11:57:00,
2014-01-08 04:02:00,45.1,33.3,30.12,ENE,75,0.0,0.0,63,0.00,,,0.00,WeatherCatV1.24B11,2014-01-08 12:02:00,
2014-01-08 04:07:00,45.2,32.2,30.12,ENE,75,0.0,0.0,60,0.00,,,0.00,WeatherCatV1.24B11,2014-01-08 12:07:00,
2014-01-08 04:12:00,45.5,32.0,30.12,ENE,75,0.0,0.0,59,0.00,,,0.00,WeatherCatV1.24B11,2014-01-08 12:12:00,
2014-01-08 04:17:00,45.5,33.2,30.13,ENE,75,0.0,0.0,62,0.00,,,0.00,WeatherCatV1.24B11,2014-01-08 12:17:00,
2014-01-08 04:22:00,45.2,31.7,30.13,ENE,75,0.0,1.0,59,0.00,,,0.00,WeatherCatV1.24B11,2014-01-08 12:22:00,
2014-01-08 04:27:00,45.5,32.0,30.13,ENE,75,0.0,0.0,59,0.00,,,0.00,WeatherCatV1.24B11,2014-01-08 12:27:00,
2014-01-08 04:32:00,45.3,31.8,30.13,ENE,75,0.0,0.0,59,0.00,,,0.00,WeatherCatV1.24B11,2014-01-08 12:32:00,
2014-01-08 04:37:00,45.6,31.7,30.13,ENE,75,0.0,0.0,58,0.00,,,0.00,WeatherCatV1.24B11,2014-01-08 12:37:00,
2014-01-08 04:42:00,45.8,31.0,30.13,ENE,75,0.0,0.0,56,0.00,,,0.00,WeatherCatV1.24B11,2014-01-08 12:42:00,
2014-01-08 04:47:00,46.1,30.8,30.13,ENE,75,0.0,0.0,55,0.00,,,0.00,WeatherCatV1.24B11,2014-01-08 12:47:00,
2014-01-08 04:52:00,46.3,31.5,30.13,ENE,75,0.0,0.0,56,0.00,,,0.00,WeatherCatV1.24B11,2014-01-08 12:52:00,
2014-01-08 04:57:00,46.5,30.3,30.13,ENE,75,0.0,0.0,53,0.00,,,0.00,WeatherCatV1.24B11,2014-01-08 12:57:00,
2014-01-08 05:02:00,46.7,30.5,30.12,ENE,75,0.0,0.0,53,0.00,,,0.00,WeatherCatV1.24B11,2014-01-08 13:02:00,
2014-01-08 05:07:00,46.8,30.6,30.12,ENE,75,0.0,0.0,53,0.00,,,0.00,WeatherCatV1.24B11,2014-01-08 13:07:00,
2014-01-08 05:12:00,46.6,30.4,30.12,ENE,75,0.0,0.0,53,0.00,,,0.00,WeatherCatV1.24B11,2014-01-08 13:12:00,
2014-01-08 05:17:00,46.3,31.5,30.13,ENE,75,0.0,0.0,56,0.00,,,0.00,WeatherCatV1.24B11,2014-01-08 13:17:00,
2014-01-08 05:22:00,45.7,30.5,30.13,ENE,75,0.0,0.0,55,0.00,,,0.00,WeatherCatV1.24B11,2014-01-08 13:22:00,
2014-01-08 05:27:00,45.4,31.5,30.13,ENE,75,0.0,0.0,58,0.00,,,0.00,WeatherCatV1.24B11,2014-01-08 13:27:00,
2014-01-08 05:32:00,45.0,30.7,30.13,ENE,75,0.0,0.0,57,0.00,,,0.00,WeatherCatV1.24B11,2014-01-08 13:32:00,
2014-01-08 05:37:00,44.7,31.3,30.13,ENE,75,0.0,0.0,59,0.00,,,0.00,WeatherCatV1.24B11,2014-01-08 13:37:00,
2014-01-08 05:42:00,44.3,30.9,30.13,ENE,75,0.0,0.0,59,0.00,,,0.00,WeatherCatV1.24B11,2014-01-08 13:42:00,
2014-01-08 05:47:00,44.1,30.7,30.13,ENE,74,0.0,0.0,59,0.00,,,0.00,WeatherCatV1.24B11,2014-01-08 13:47:00,
2014-01-08 05:52:00,43.9,31.7,30.14,NE,37,0.0,0.0,62,0.00,,,0.00,WeatherCatV1.24B11,2014-01-08 13:52:00,
2014-01-08 05:57:00,43.3,31.6,30.14,NE,37,0.0,0.0,63,0.00,,,0.00,WeatherCatV1.24B11,2014-01-08 13:57:00,
2014-01-08 06:02:00,42.9,31.6,30.14,NE,37,0.0,0.0,64,0.00,,,0.00,WeatherCatV1.24B11,2014-01-08 14:02:00,
2014-01-08 06:07:00,42.5,31.2,30.14,NE,37,0.0,0.0,64,0.00,,,0.00,WeatherCatV1.24B11,2014-01-08 14:07:00,
2014-01-08 06:12:00,42.1,30.8,30.14,NE,37,0.0,0.0,64,0.00,,,0.00,WeatherCatV1.24B11,2014-01-08 14:12:00,
2014-01-08 06:17:00,41.7,31.2,30.14,NE,37,0.0,0.0,66,0.00,,,0.00,WeatherCatV1.24B11,2014-01-08 14:17:00,
2014-01-08 06:22:00,41.5,31.4,30.14,NE,37,0.0,0.0,67,0.00,,,0.00,WeatherCatV1.24B11,2014-01-08 14:22:00,
2014-01-08 06:27:00,41.3,31.2,30.14,NE,37,0.0,0.0,67,0.00,,,0.00,WeatherCatV1.24B11,2014-01-08 14:27:00,
2014-01-08 06:32:00,41.3,30.8,30.14,NE,37,0.0,0.0,66,0.00,,,0.00,WeatherCatV1.24B11,2014-01-08 14:32:00,
2014-01-08 06:37:00,41.4,30.9,30.14,NE,37,0.0,0.0,66,0.00,,,0.00,WeatherCatV1.24B11,2014-01-08 14:37:00,
2014-01-08 06:42:00,41.3,30.8,30.15,NE,37,0.0,0.0,66,0.00,,,0.00,WeatherCatV1.24B11,2014-01-08 14:42:00,
2014-01-08 06:47:00,41.2,31.1,30.15,NE,37,0.0,0.0,67,0.00,,,0.00,WeatherCatV1.24B11,2014-01-08 14:47:00,
2014-01-08 06:52:00,40.8,30.7,30.15,NE,37,0.0,0.0,67,0.00,,,0.00,WeatherCatV1.24B11,2014-01-08 14:52:00,
2014-01-08 06:57:00,40.5,30.8,30.14,NE,37,0.0,0.0,68,0.00,,,0.00,WeatherCatV1.24B11,2014-01-08 14:57:00,
2014-01-08 07:02:00,40.7,31.3,30.14,NE,37,0.0,0.0,69,0.00,,,0.00,WeatherCatV1.24B11,2014-01-08 15:02:00,
2014-01-08 07:07:00,40.9,30.8,30.14,NE,37,0.0,0.0,67,0.00,,,0.00,WeatherCatV1.24B11,2014-01-08 15:07:00,
2014-01-08 07:12:00,41.5,30.6,30.13,ENE,74,1.0,2.0,65,0.00,,,0.00,WeatherCatV1.24B11,2014-01-08 15:12:00,
2014-01-08 07:17:00,41.9,31.0,30.12,ENE,78,0.0,0.0,65,0.00,,,0.00,WeatherCatV1.24B11,2014-01-08 15:17:00,
2014-01-08 07:22:00,42.0,31.1,30.12,ENE,77,0.0,0.0,65,0.00,,,0.00,WeatherCatV1.24B11,2014-01-08 15:22:00,
2014-01-08 07:27:00,41.9,31.0,30.12,ENE,78,0.0,0.0,65,0.00,,,0.00,WeatherCatV1.24B11,2014-01-08 15:27:00,
2014-01-08 07:32:00,41.0,30.5,30.12,ENE,78,0.0,0.0,66,0.00,,,0.00,WeatherCatV1.24B11,2014-01-08 15:32:00,
2014-01-08 07:37:00,40.0,29.9,30.13,ENE,78,0.0,1.0,67,0.00,,,0.00,WeatherCatV1.24B11,2014-01-08 15:37:00,
2014-01-08 07:42:00,39.5,30.2,30.13,ENE,78,0.0,0.0,69,0.00,,,0.00,WeatherCatV1.24B11,2014-01-08 15:42:00,
2014-01-08 07:47:00,39.4,30.8,30.12,ENE,78,0.0,0.0,71,0.00,,,0.00,WeatherCatV1.24B11,2014-01-08 15:47:00,
2014-01-08 07:52:00,39.8,30.8,30.12,ENE,78,0.0,0.0,70,0.00,,,0.00,WeatherCatV1.24B11,2014-01-08 15:52:00,
2014-01-08 07:57:00,39.8,30.8,30.12,North,6,0.0,0.0,70,0.00,,,0.00,WeatherCatV1.24B11,2014-01-08 15:57:00,
2014-01-08 08:02:00,39.4,30.8,30.12,North,6,0.0,0.0,71,0.00,,,0.00,WeatherCatV1.24B11,2014-01-08 16:02:00,
2014-01-08 08:07:00,39.2,30.2,30.14,North,6,0.0,0.0,70,0.00,,,0.00,WeatherCatV1.24B11,2014-01-08 16:07:00,
2014-01-08 08:12:00,39.4,30.4,30.14,North,6,0.0,0.0,70,0.00,,,0.00,WeatherCatV1.24B11,2014-01-08 16:12:00,
2014-01-08 08:17:00,40.4,30.7,30.14,North,6,0.0,0.0,68,0.00,,,0.00,WeatherCatV1.24B11,2014-01-08 16:17:00,
2014-01-08 08:22:00,41.1,31.0,30.15,North,6,0.0,0.0,67,0.00,,,0.00,WeatherCatV1.24B11,2014-01-08 16:22:00,
2014-01-08 08:27:00,41.3,31.2,30.14,North,6,0.0,1.0,67,0.00,,,0.00,WeatherCatV1.24B11,2014-01-08 16:27:00,
2014-01-08 08:32:00,41.8,31.3,30.14,North,6,0.0,0.0,66,0.00,,,0.00,WeatherCatV1.24B11,2014-01-08 16:32:00,
2014-01-08 08:37:00,41.9,31.4,30.15,North,6,0.0,0.0,66,0.00,,,0.00,WeatherCatV1.24B11,2014-01-08 16:37:00,
2014-01-08 08:42:00,41.9,31.4,30.15,North,6,0.0,1.0,66,0.00,,,0.00,WeatherCatV1.24B11,2014-01-08 16:42:00,
2014-01-08 08:47:00,43.0,31.7,30.15,North,6,0.0,0.0,64,0.00,,,0.00,WeatherCatV1.24B11,2014-01-08 16:47:00,
2014-01-08 08:52:00,44.0,32.2,30.14,North,6,0.0,0.0,63,0.00,,,0.00,WeatherCatV1.24B11,2014-01-08 16:52:00,
2014-01-08 08:57:00,44.3,32.5,30.14,North,6,0.0,0.0,63,0.00,,,0.00,WeatherCatV1.24B11,2014-01-08 16:57:00,
2014-01-08 09:02:00,44.3,32.9,30.14,North,6,0.0,0.0,64,0.00,,,0.00,WeatherCatV1.24B11,2014-01-08 17:02:00,
2014-01-08 09:07:00,44.4,33.0,30.15,North,6,0.0,0.0,64,0.00,,,0.00,WeatherCatV1.24B11,2014-01-08 17:07:00,
2014-01-08 09:12:00,44.8,33.4,30.15,North,6,0.0,0.0,64,0.00,,,0.00,WeatherCatV1.24B11,2014-01-08 17:12:00,
2014-01-08 09:17:00,45.1,33.7,30.16,North,6,0.0,0.0,64,0.00,,,0.00,WeatherCatV1.24B11,2014-01-08 17:17:00,
2014-01-08 09:22:00,45.3,33.1,30.16,North,6,0.0,0.0,62,0.00,,,0.00,WeatherCatV1.24B11,2014-01-08 17:22:00,
2014-01-08 09:27:00,45.9,33.2,30.16,North,6,0.0,0.0,61,0.00,,,0.00,WeatherCatV1.24B11,2014-01-08 17:27:00,
2014-01-08 09:32:00,46.4,32.9,30.16,North,6,0.0,0.0,59,0.00,,,0.00,WeatherCatV1.24B11,2014-01-08 17:32:00,
2014-01-08 09:37:00,46.9,33.8,30.16,North,6,0.0,0.0,60,0.00,,,0.00,WeatherCatV1.24B11,2014-01-08 17:37:00,
2014-01-08 09:42:00,47.2,34.5,30.17,North,6,0.0,0.0,61,0.00,,,0.00,WeatherCatV1.24B11,2014-01-08 17:42:00,
2014-01-08 09:47:00,47.4,33.8,30.17,WNW,295,0.0,1.0,59,0.00,,,0.00,WeatherCatV1.24B11,2014-01-08 17:47:00,
2014-01-08 09:52:00,47.5,33.5,30.17,WNW,295,0.0,1.0,58,0.00,,,0.00,WeatherCatV1.24B11,2014-01-08 17:52:00,
2014-01-08 09:57:00,47.7,33.2,30.18,WNW,287,1.0,2.0,57,0.00,,,0.00,WeatherCatV1.24B11,2014-01-08 17:57:00,
2014-01-08 10:02:00,47.7,33.2,30.18,WNW,285,0.0,2.0,57,0.00,,,0.00,WeatherCatV1.24B11,2014-01-08 18:02:00,
2014-01-08 10:07:00,48.0,33.9,30.18,WNW,283,0.0,1.0,58,0.00,,,0.00,WeatherCatV1.24B11,2014-01-08 18:07:00,
2014-01-08 10:12:00,48.0,32.6,30.17,NNW,338,2.0,3.0,55,0.00,,,0.00,WeatherCatV1.24B11,2014-01-08 18:12:00,
2014-01-08 10:17:00,47.9,33.0,30.17,NW,319,0.0,0.0,56,0.00,,,0.00,WeatherCatV1.24B11,2014-01-08 18:17:00,
2014-01-08 10:22:00,47.9,33.4,30.17,NW,318,1.0,1.0,57,0.00,,,0.00,WeatherCatV1.24B11,2014-01-08 18:22:00,
2014-01-08 10:27:00,47.9,33.4,30.18,NW,314,1.0,1.0,57,0.00,,,0.00,WeatherCatV1.24B11,2014-01-08 18:27:00,
2014-01-08 10:32:00,48.1,33.6,30.18,NNW,346,0.0,2.0,57,0.00,,,0.00,WeatherCatV1.24B11,2014-01-08 18:32:00,
2014-01-08 10:37:00,48.6,34.1,30.17,NNW,345,0.0,0.0,57,0.00,,,0.00,WeatherCatV1.24B11,2014-01-08 18:37:00,
2014-01-08 10:42:00,49.1,34.1,30.17,North,11,0.0,2.0,56,0.00,,,0.00,WeatherCatV1.24B11,2014-01-08 18:42:00,
2014-01-08 10:47:00,49.8,34.7,30.17,West,266,0.0,1.0,56,0.00,,,0.00,WeatherCatV1.24B11,2014-01-08 18:47:00,
2014-01-08 10:52:00,50.5,34.9,30.17,North,349,0.0,0.0,55,0.00,,,0.00,WeatherCatV1.24B11,2014-01-08 18:52:00,
2014-01-08 10:57:00,51.0,35.0,30.17,North,349,0.0,1.0,54,0.00,,,0.00,WeatherCatV1.24B11,2014-01-08 18:57:00,
2014-01-08 11:02:00,51.5,35.4,30.16,North,349,0.0,0.0,54,0.00,,,0.00,WeatherCatV1.24B11,2014-01-08 19:02:00,
2014-01-08 11:07:00,52.1,35.5,30.16,NW,309,0.0,1.0,53,0.00,,,0.00,WeatherCatV1.24B11,2014-01-08 19:07:00,
2014-01-08 11:12:00,52.6,36.4,30.16,WNW,292,0.0,1.0,54,0.00,,,0.00,WeatherCatV1.24B11,2014-01-08 19:12:00,
2014-01-08 11:17:00,53.3,36.6,30.16,WNW,300,0.0,1.0,53,0.00,,,0.00,WeatherCatV1.24B11,2014-01-08 19:17:00,
2014-01-08 11:22:00,53.7,37.0,30.16,WNW,300,0.0,0.0,53,0.00,,,0.00,WeatherCatV1.24B11,2014-01-08 19:22:00,
2014-01-08 11:27:00,53.8,36.6,30.15,SW,232,0.0,0.0,52,0.00,,,0.00,WeatherCatV1.24B11,2014-01-08 19:27:00,
2014-01-08 11:32:00,54.0,36.8,30.14,SE,139,0.0,1.0,52,0.00,,,0.00,WeatherCatV1.24B11,2014-01-08 19:32:00,
2014-01-08 11:37:00,54.2,37.4,30.14,SE,143,0.0,0.0,53,0.00,,,0.00,WeatherCatV1.24B11,2014-01-08 19:37:00,
2014-01-08 11:42:00,54.5,37.7,30.13,SE,144,0.0,0.0,53,0.00,,,0.00,WeatherCatV1.24B11,2014-01-08 19:42:00,
2014-01-08 11:47:00,54.9,37.6,30.13,West,278,0.0,1.0,52,0.00,,,0.00,WeatherCatV1.24B11,2014-01-08 19:47:00,
2014-01-08 11:52:00,55.0,37.7,30.12,SSW,212,1.0,2.0,52,0.00,,,0.00,WeatherCatV1.24B11,2014-01-08 19:52:00,
2014-01-08 11:57:00,54.9,37.6,30.12,SSW,205,0.0,0.0,52,0.00,,,0.00,WeatherCatV1.24B11,2014-01-08 19:57:00,
2014-01-08 12:02:00,54.8,37.5,30.11,East,98,0.0,2.0,52,0.00,,,0.00,WeatherCatV1.24B11,2014-01-08 20:02:00,
2014-01-08 12:07:00,54.6,37.8,30.11,SE,145,0.0,1.0,53,0.00,,,0.00,WeatherCatV1.24B11,2014-01-08 20:07:00,
2014-01-08 12:12:00,54.7,37.9,30.10,SE,145,0.0,0.0,53,0.00,,,0.00,WeatherCatV1.24B11,2014-01-08 20:12:00,
2014-01-08 12:17:00,54.9,37.6,30.10,SW,226,1.0,1.0,52,0.00,,,0.00,WeatherCatV1.24B11,2014-01-08 20:17:00,
2014-01-08 12:22:00,54.6,37.8,30.11,West,267,0.0,1.0,53,0.00,,,0.00,WeatherCatV1.24B11,2014-01-08 20:22:00,
2014-01-08 12:27:00,54.2,36.5,30.11,West,273,3.0,3.0,51,0.00,,,0.00,WeatherCatV1.24B11,2014-01-08 20:27:00,
2014-01-08 12:32:00,53.8,36.1,30.11,WSW,251,3.0,3.0,51,0.00,,,0.00,WeatherCatV1.24B11,2014-01-08 20:32:00,
2014-01-08 12:37:00,53.4,36.2,30.11,West,273,0.0,1.0,52,0.00,,,0.00,WeatherCatV1.24B11,2014-01-08 20:37:00,
2014-01-08 12:42:00,53.4,36.2,30.11,West,260,1.0,2.0,52,0.00,,,0.00,WeatherCatV1.24B11,2014-01-08 20:42:00,
2014-01-08 12:47:00,53.3,36.6,30.11,West,271,1.0,1.0,53,0.00,,,0.00,WeatherCatV1.24B11,2014-01-08 20:47:00,
2014-01-08 12:52:00,53.5,36.8,30.11,SSW,207,0.0,0.0,53,0.00,,,0.00,WeatherCatV1.24B11,2014-01-08 20:52:00,
2014-01-08 12:57:00,53.8,36.6,30.10,SE,127,0.0,1.0,52,0.00,,,0.00,WeatherCatV1.24B11,2014-01-08 20:57:00,
2014-01-08 13:02:00,53.9,36.7,30.10,SSW,207,0.0,1.0,52,0.00,,,0.00,WeatherCatV1.24B11,2014-01-08 21:02:00,
2014-01-08 13:07:00,53.7,37.0,30.11,WSW,250,1.0,1.0,53,0.00,,,0.00,WeatherCatV1.24B11,2014-01-08 21:07:00,
2014-01-08 13:12:00,53.3,37.5,30.10,West,263,2.0,4.0,55,0.00,,,0.00,WeatherCatV1.24B11,2014-01-08 21:12:00,
2014-01-08 13:17:00,52.8,38.0,30.10,WSW,253,1.0,2.0,57,0.00,,,0.00,WeatherCatV1.24B11,2014-01-08 21:17:00,
2014-01-08 13:22:00,52.8,39.7,30.11,West,280,2.0,4.0,61,0.00,,,0.00,WeatherCatV1.24B11,2014-01-08 21:22:00,
2014-01-08 13:27:00,52.7,40.9,30.11,West,271,2.0,2.0,64,0.00,,,0.00,WeatherCatV1.24B11,2014-01-08 21:27:00,
2014-01-08 13:32:00,52.2,41.2,30.11,West,267,2.0,4.0,66,0.00,,,0.00,WeatherCatV1.24B11,2014-01-08 21:32:00,
2014-01-08 13:37:00,51.8,41.2,30.10,SW,235,0.0,3.0,67,0.00,,,0.00,WeatherCatV1.24B11,2014-01-08 21:37:00,
2014-01-08 13:42:00,51.7,41.1,30.10,WSW,256,2.0,2.0,67,0.00,,,0.00,WeatherCatV1.24B11,2014-01-08 21:42:00,
2014-01-08 13:47:00,51.6,41.0,30.10,West,269,0.0,1.0,67,0.00,,,0.00,WeatherCatV1.24B11,2014-01-08 21:47:00,
2014-01-08 13:52:00,51.7,41.1,30.10,North,357,0.0,3.0,67,0.00,,,0.00,WeatherCatV1.24B11,2014-01-08 21:52:00,
2014-01-08 13:57:00,51.8,41.2,30.10,West,267,1.0,1.0,67,0.00,,,0.00,WeatherCatV1.24B11,2014-01-08 21:57:00,
2014-01-08 14:02:00,51.8,40.8,30.10,NNW,346,0.0,1.0,66,0.00,,,0.00,WeatherCatV1.24B11,2014-01-08 22:02:00,
2014-01-08 14:07:00,51.8,41.2,30.10,NNW,335,0.0,1.0,67,0.00,,,0.00,WeatherCatV1.24B11,2014-01-08 22:07:00,
2014-01-08 14:12:00,51.9,41.3,30.10,NNW,335,0.0,1.0,67,0.00,,,0.00,WeatherCatV1.24B11,2014-01-08 22:12:00,
2014-01-08 14:17:00,52.1,41.1,30.10,NNW,328,0.0,1.0,66,0.00,,,0.00,WeatherCatV1.24B11,2014-01-08 22:17:00,
2014-01-08 14:22:00,52.6,41.6,30.10,SSW,193,1.0,1.0,66,0.00,,,0.00,WeatherCatV1.24B11,2014-01-08 22:22:00,
2014-01-08 14:27:00,53.0,41.5,30.10,West,271,0.0,1.0,65,0.00,,,0.00,WeatherCatV1.24B11,2014-01-08 22:27:00,
2014-01-08 14:32:00,53.2,41.7,30.10,West,270,0.0,0.0,65,0.00,,,0.00,WeatherCatV1.24B11,2014-01-08 22:32:00,
2014-01-08 14:37:00,53.4,41.9,30.11,WSW,238,1.0,2.0,65,0.00,,,0.00,WeatherCatV1.24B11,2014-01-08 22:37:00,
2014-01-08 14:42:00,53.4,41.9,30.11,SE,139,1.0,2.0,65,0.00,,,0.00,WeatherCatV1.24B11,2014-01-08 22:42:00,
2014-01-08 14:47:00,53.3,41.8,30.10,South,170,1.0,3.0,65,0.00,,,0.00,WeatherCatV1.24B11,2014-01-08 22:47:00,
2014-01-08 14:52:00,53.3,42.2,30.10,SSE,168,1.0,1.0,66,0.00,,,0.00,WeatherCatV1.24B11,2014-01-08 22:52:00,
2014-01-08 14:57:00,53.4,41.9,30.10,South,169,0.0,0.0,65,0.00,,,0.00,WeatherCatV1.24B11,2014-01-08 22:57:00,
2014-01-08 15:02:00,53.4,41.9,30.10,South,169,0.0,1.0,65,0.00,,,0.00,WeatherCatV1.24B11,2014-01-08 23:02:00,
2014-01-08 15:07:00,53.3,42.2,30.09,South,169,0.0,0.0,66,0.00,,,0.00,WeatherCatV1.24B11,2014-01-08 23:07:00,
2014-01-08 15:12:00,53.3,42.2,30.08,SE,135,0.0,0.0,66,0.00,,,0.00,WeatherCatV1.24B11,2014-01-08 23:12:00,
2014-01-08 15:17:00,53.2,41.7,30.08,West,281,0.0,1.0,65,0.00,,,0.00,WeatherCatV1.24B11,2014-01-08 23:17:00,
2014-01-08 15:22:00,53.1,42.0,30.09,South,190,0.0,0.0,66,0.00,,,0.00,WeatherCatV1.24B11,2014-01-08 23:22:00,
2014-01-08 15:27:00,53.0,42.0,30.09,South,190,0.0,0.0,66,0.00,,,0.00,WeatherCatV1.24B11,2014-01-08 23:27:00,
2014-01-08 15:32:00,52.6,41.6,30.10,SSW,197,0.0,0.0,66,0.00,,,0.00,WeatherCatV1.24B11,2014-01-08 23:32:00,
2014-01-08 15:37:00,52.4,41.4,30.10,SSW,196,0.0,0.0,66,0.00,,,0.00,WeatherCatV1.24B11,2014-01-08 23:37:00,
2014-01-08 15:42:00,52.2,41.2,30.10,SSW,196,0.0,0.0,66,0.00,,,0.00,WeatherCatV1.24B11,2014-01-08 23:42:00,
2014-01-08 15:47:00,52.1,41.1,30.11,SSW,196,0.0,0.0,66,0.00,,,0.00,WeatherCatV1.24B11,2014-01-08 23:47:00,
2014-01-08 15:52:00,52.0,41.0,30.11,SSW,197,0.0,0.0,66,0.00,,,0.00,WeatherCatV1.24B11,2014-01-08 23:52:00,
2014-01-08 15:57:00,51.6,40.6,30.11,West,260,0.0,2.0,66,0.00,,,0.00,WeatherCatV1.24B11,2014-01-08 23:57:00,
2014-01-08 16:02:00,51.3,40.7,30.12,West,260,0.0,1.0,67,0.00,,,0.00,WeatherCatV1.24B11,2014-01-09 00:02:00,
2014-01-08 16:07:00,51.1,40.5,30.12,West,259,0.0,0.0,67,0.00,,,0.00,WeatherCatV1.24B11,2014-01-09 00:07:00,
2014-01-08 16:12:00,51.0,40.8,30.11,WSW,258,0.0,0.0,68,0.00,,,0.00,WeatherCatV1.24B11,2014-01-09 00:12:00,
2014-01-08 16:17:00,50.8,40.6,30.11,WSW,257,0.0,1.0,68,0.00,,,0.00,WeatherCatV1.24B11,2014-01-09 00:17:00,
2014-01-08 16:22:00,50.6,40.8,30.11,SE,139,0.0,0.0,69,0.00,,,0.00,WeatherCatV1.24B11,2014-01-09 00:22:00,
2014-01-08 16:27:00,50.4,40.6,30.11,SE,139,0.0,0.0,69,0.00,,,0.00,WeatherCatV1.24B11,2014-01-09 00:27:00,
2014-01-08 16:32:00,50.2,40.8,30.11,SE,139,0.0,0.0,70,0.00,,,0.00,WeatherCatV1.24B11,2014-01-09 00:32:00,
2014-01-08 16:37:00,49.9,40.5,30.12,SSW,212,0.0,1.0,70,0.00,,,0.00,WeatherCatV1.24B11,2014-01-09 00:37:00,
2014-01-08 16:42:00,49.6,40.6,30.12,SSW,211,0.0,0.0,71,0.00,,,0.00,WeatherCatV1.24B11,2014-01-09 00:42:00,
2014-01-08 16:47:00,49.3,40.3,30.13,SSW,212,0.0,0.0,71,0.00,,,0.00,WeatherCatV1.24B11,2014-01-09 00:47:00,
2014-01-08 16:52:00,49.1,40.5,30.12,SE,141,0.0,0.0,72,0.00,,,0.00,WeatherCatV1.24B11,2014-01-09 00:52:00,
2014-01-08 16:57:00,48.8,40.2,30.12,SE,141,0.0,0.0,72,0.00,,,0.00,WeatherCatV1.24B11,2014-01-09 00:57:00,
2014-01-08 17:02:00,48.5,40.2,30.13,SE,141,0.0,0.0,73,0.00,,,0.00,WeatherCatV1.24B11,2014-01-09 01:02:00,
2014-01-08 17:07:00,48.3,40.4,30.12,SE,141,0.0,0.0,74,0.00,,,0.00,WeatherCatV1.24B11,2014-01-09 01:07:00,
2014-01-08 17:12:00,48.1,40.2,30.13,SE,141,0.0,0.0,74,0.00,,,0.00,WeatherCatV1.24B11,2014-01-09 01:12:00,
2014-01-08 17:17:00,47.9,40.4,30.13,SE,141,0.0,0.0,75,0.00,,,0.00,WeatherCatV1.24B11,2014-01-09 01:17:00,
2014-01-08 17:22:00,47.7,40.2,30.13,SE,141,0.0,0.0,75,0.00,,,0.00,WeatherCatV1.24B11,2014-01-09 01:22:00,
2014-01-08 17:27:00,47.4,39.9,30.13,SE,141,0.0,0.0,75,0.00,,,0.00,WeatherCatV1.24B11,2014-01-09 01:27:00,
2014-01-08 17:32:00,47.1,39.9,30.13,SE,141,0.0,0.0,76,0.00,,,0.00,WeatherCatV1.24B11,2014-01-09 01:32:00,
2014-01-08 17:37:00,46.9,39.7,30.13,SE,141,0.0,0.0,76,0.00,,,0.00,WeatherCatV1.24B11,2014-01-09 01:37:00,
2014-01-08 17:42:00,46.6,39.8,30.12,SE,141,0.0,0.0,77,0.00,,,0.00,WeatherCatV1.24B11,2014-01-09 01:42:00,
2014-01-08 17:47:00,46.3,39.5,30.12,SE,141,0.0,1.0,77,0.00,,,0.00,WeatherCatV1.24B11,2014-01-09 01:47:00,
2014-01-08 17:52:00,46.0,39.5,30.12,SE,141,0.0,0.0,78,0.00,,,0.00,WeatherCatV1.24B11,2014-01-09 01:52:00,
2014-01-08 17:57:00,45.7,39.2,30.13,SE,141,0.0,0.0,78,0.00,,,0.00,WeatherCatV1.24B11,2014-01-09 01:57:00,
2014-01-08 18:02:00,45.4,39.0,30.13,SE,141,0.0,0.0,78,0.00,,,0.00,WeatherCatV1.24B11,2014-01-09 02:02:00,
2014-01-08 18:07:00,45.1,39.0,30.13,SE,141,0.0,0.0,79,0.00,,,0.00,WeatherCatV1.24B11,2014-01-09 02:07:00,
2014-01-08 18:12:00,44.8,38.7,30.12,SE,141,0.0,0.0,79,0.00,,,0.00,WeatherCatV1.24B11,2014-01-09 02:12:00,
2014-01-08 18:17:00,44.5,38.7,30.12,SE,141,0.0,0.0,80,0.00,,,0.00,WeatherCatV1.24B11,2014-01-09 02:17:00,
2014-01-08 18:22:00,44.2,38.4,30.13,SE,141,0.0,0.0,80,0.00,,,0.00,WeatherCatV1.24B11,2014-01-09 02:22:00,
2014-01-08 18:27:00,43.7,38.3,30.13,SE,141,0.0,0.0,81,0.00,,,0.00,WeatherCatV1.24B11,2014-01-09 02:27:00,
2014-01-08 18:32:00,43.4,38.6,30.14,SE,141,0.0,0.0,83,0.00,,,0.00,WeatherCatV1.24B11,2014-01-09 02:32:00,
2014-01-08 18:37:00,43.2,38.4,30.14,SE,141,0.0,0.0,83,0.00,,,0.00,WeatherCatV1.24B11,2014-01-09 02:37:00,
2014-01-08 18:42:00,43.3,38.5,30.14,SE,141,0.0,0.0,83,0.00,,,0.00,WeatherCatV1.24B11,2014-01-09 02:42:00,
2014-01-08 18:47:00,43.3,38.5,30.13,SE,141,0.0,0.0,83,0.00,,,0.00,WeatherCatV1.24B11,2014-01-09 02:47:00,
2014-01-08 18:52:00,43.5,38.7,30.13,SE,141,0.0,0.0,83,0.00,,,0.00,WeatherCatV1.24B11,2014-01-09 02:52:00,
2014-01-08 18:57:00,43.4,38.0,30.14,SE,141,0.0,0.0,81,0.00,,,0.00,WeatherCatV1.24B11,2014-01-09 02:57:00,
2014-01-08 19:02:00,43.0,37.9,30.14,SE,141,0.0,0.0,82,0.00,,,0.00,WeatherCatV1.24B11,2014-01-09 03:02:00,
2014-01-08 19:07:00,43.0,38.2,30.14,SE,141,0.0,0.0,83,0.00,,,0.00,WeatherCatV1.24B11,2014-01-09 03:07:00,
2014-01-08 19:12:00,43.2,38.4,30.14,SE,141,0.0,0.0,83,0.00,,,0.00,WeatherCatV1.24B11,2014-01-09 03:12:00,
2014-01-08 19:17:00,43.0,38.2,30.15,SE,141,0.0,0.0,83,0.00,,,0.00,WeatherCatV1.24B11,2014-01-09 03:17:00,
2014-01-08 19:22:00,42.8,38.0,30.15,SE,141,0.0,0.0,83,0.00,,,0.00,WeatherCatV1.24B11,2014-01-09 03:22:00,
2014-01-08 19:27:00,42.6,37.8,30.16,SE,141,0.0,0.0,83,0.00,,,0.00,WeatherCatV1.24B11,2014-01-09 03:27:00,
2014-01-08 19:32:00,42.8,38.6,30.16,SE,141,0.0,0.0,85,0.00,,,0.00,WeatherCatV1.24B11,2014-01-09 03:32:00,
2014-01-08 19:37:00,43.0,38.5,30.16,SE,141,0.0,1.0,84,0.00,,,0.00,WeatherCatV1.24B11,2014-01-09 03:37:00,
2014-01-08 19:42:00,43.1,38.6,30.15,SE,141,0.0,0.0,84,0.00,,,0.00,WeatherCatV1.24B11,2014-01-09 03:42:00,
2014-01-08 19:47:00,42.7,37.6,30.17,SE,141,0.0,0.0,82,0.00,,,0.00,WeatherCatV1.24B11,2014-01-09 03:47:00,
2014-01-08 19:52:00,42.1,37.3,30.16,SE,141,0.0,0.0,83,0.00,,,0.00,WeatherCatV1.24B11,2014-01-09 03:52:00,
2014-01-08 19:57:00,41.8,37.0,30.17,SE,141,0.0,0.0,83,0.00,,,0.00,WeatherCatV1.24B11,2014-01-09 03:57:00,
2014-01-08 20:02:00,41.5,37.3,30.17,SE,141,0.0,0.0,85,0.00,,,0.00,WeatherCatV1.24B11,2014-01-09 04:02:00,
2014-01-08 20:07:00,41.5,37.6,30.17,SE,141,0.0,0.0,86,0.00,,,0.00,WeatherCatV1.24B11,2014-01-09 04:07:00,
2014-01-08 20:12:00,41.7,37.5,30.17,SE,141,0.0,0.0,85,0.00,,,0.00,WeatherCatV1.24B11,2014-01-09 04:12:00,
2014-01-08 20:17:00,41.7,37.5,30.17,SE,140,0.0,0.0,85,0.00,,,0.00,WeatherCatV1.24B11,2014-01-09 04:17:00,
2014-01-08 20:22:00,42.0,38.1,30.17,SE,139,0.0,0.0,86,0.00,,,0.00,WeatherCatV1.24B11,2014-01-09 04:22:00,
2014-01-08 20:27:00,42.0,37.5,30.17,SE,139,0.0,0.0,84,0.00,,,0.00,WeatherCatV1.24B11,2014-01-09 04:27:00,
2014-01-08 20:32:00,41.6,37.1,30.17,SE,139,0.0,0.0,84,0.00,,,0.00,WeatherCatV1.24B11,2014-01-09 04:32:00,
2014-01-08 20:37:00,41.4,37.2,30.18,SE,139,0.0,0.0,85,0.00,,,0.00,WeatherCatV1.24B11,2014-01-09 04:37:00,
2014-01-08 20:42:00,41.4,37.5,30.17,SE,140,0.0,0.0,86,0.00,,,0.00,WeatherCatV1.24B11,2014-01-09 04:42:00,
2014-01-08 20:47:00,41.5,37.0,30.17,SE,139,0.0,0.0,84,0.00,,,0.00,WeatherCatV1.24B11,2014-01-09 04:47:00,
2014-01-08 20:52:00,41.3,37.1,30.17,SE,139,0.0,0.0,85,0.00,,,0.00,WeatherCatV1.24B11,2014-01-09 04:52:00,
2014-01-08 20:57:00,41.9,38.3,30.16,SE,134,0.0,0.0,87,0.00,,,0.00,WeatherCatV1.24B11,2014-01-09 04:57:00,
2014-01-08 21:01:00,42.3,38.7,30.16,SE,134,0.0,0.0,87,0.00,,,0.00,WeatherCatV1.24B11,2014-01-09 05:01:00,
2014-01-08 21:06:00,42.4,38.5,30.16,SE,134,0.0,0.0,86,0.00,,,0.00,WeatherCatV1.24B11,2014-01-09 05:06:00,
2014-01-08 21:11:00,42.6,38.7,30.16,SE,134,0.0,0.0,86,0.00,,,0.00,WeatherCatV1.24B11,2014-01-09 05:11:00,
2014-01-08 21:16:00,42.8,38.9,30.15,East,83,0.0,1.0,86,0.00,,,0.00,WeatherCatV1.24B11,2014-01-09 05:16:00,
2014-01-08 21:21:00,43.0,38.8,30.16,East,82,0.0,0.0,85,0.00,,,0.00,WeatherCatV1.24B11,2014-01-09 05:21:00,
2014-01-08 21:26:00,42.7,38.2,30.16,East,82,0.0,1.0,84,0.00,,,0.00,WeatherCatV1.24B11,2014-01-09 05:26:00,
2014-01-08 21:31:00,42.9,39.0,30.15,East,82,0.0,0.0,86,0.00,,,0.00,WeatherCatV1.24B11,2014-01-09 05:31:00,
2014-01-08 21:36:00,43.1,38.9,30.16,East,82,0.0,0.0,85,0.00,,,0.00,WeatherCatV1.24B11,2014-01-09 05:36:00,
2014-01-08 21:41:00,43.3,39.1,30.16,East,84,0.0,1.0,85,0.00,,,0.00,WeatherCatV1.24B11,2014-01-09 05:41:00,
2014-01-08 21:46:00,43.3,38.8,30.15,East,80,0.0,0.0,84,0.00,,,0.00,WeatherCatV1.24B11,2014-01-09 05:46:00,
2014-01-08 21:51:00,43.3,38.8,30.15,East,82,0.0,1.0,84,0.00,,,0.00,WeatherCatV1.24B11,2014-01-09 05:51:00,
2014-01-08 21:56:00,43.2,38.7,30.15,ENE,77,0.0,0.0,84,0.00,,,0.00,WeatherCatV1.24B11,2014-01-09 05:56:00,
2014-01-08 22:01:00,43.2,38.7,30.15,ENE,76,0.0,1.0,84,0.00,,,0.00,WeatherCatV1.24B11,2014-01-09 06:01:00,
2014-01-08 22:06:00,43.2,38.7,30.15,ENE,77,0.0,0.0,84,0.00,,,0.00,WeatherCatV1.24B11,2014-01-09 06:06:00,
2014-01-08 22:11:00,43.0,38.5,30.15,ENE,77,0.0,0.0,84,0.00,,,0.00,WeatherCatV1.24B11,2014-01-09 06:11:00,
2014-01-08 22:16:00,42.9,38.4,30.16,ENE,77,0.0,0.0,84,0.00,,,0.00,WeatherCatV1.24B11,2014-01-09 06:16:00,
2014-01-08 22:21:00,43.0,38.5,30.15,ENE,77,0.0,0.0,84,0.00,,,0.00,WeatherCatV1.24B11,2014-01-09 06:21:00,
2014-01-08 22:26:00,43.1,38.6,30.16,ENE,76,0.0,0.0,84,0.00,,,0.00,WeatherCatV1.24B11,2014-01-09 06:26:00,
2014-01-08 22:31:00,43.4,38.9,30.15,ENE,77,1.0,1.0,84,0.00,,,0.00,WeatherCatV1.24B11,2014-01-09 06:31:00,
2014-01-08 22:36:00,43.4,38.6,30.15,ENE,78,0.0,1.0,83,0.00,,,0.00,WeatherCatV1.24B11,2014-01-09 06:36:00,
2014-01-08 22:41:00,43.3,38.5,30.15,East,85,0.0,0.0,83,0.00,,,0.00,WeatherCatV1.24B11,2014-01-09 06:41:00,
2014-01-08 22:46:00,43.1,38.3,30.15,East,85,0.0,0.0,83,0.00,,,0.00,WeatherCatV1.24B11,2014-01-09 06:46:00,
2014-01-08 22:51:00,42.9,37.8,30.15,East,85,0.0,0.0,82,0.00,,,0.00,WeatherCatV1.24B11,2014-01-09 06:51:00,
2014-01-08 22:56:00,42.8,38.0,30.15,East,85,0.0,0.0,83,0.00,,,0.00,WeatherCatV1.24B11,2014-01-09 06:56:00,
2014-01-08 23:01:00,42.8,38.3,30.14,East,85,0.0,1.0,84,0.00,,,0.00,WeatherCatV1.24B11,2014-01-09 07:01:00,
2014-01-08 23:06:00,42.9,38.4,30.14,East,85,0.0,0.0,84,0.00,,,0.00,WeatherCatV1.24B11,2014-01-09 07:06:00,
2014-01-08 23:11:00,42.9,38.4,30.14,East,85,0.0,0.0,84,0.00,,,0.00,WeatherCatV1.24B11,2014-01-09 07:11:00,
2014-01-08 23:16:00,42.9,38.4,30.14,East,84,0.0,0.0,84,0.00,,,0.00,WeatherCatV1.24B11,2014-01-09 07:16:00,
2014-01-08 23:21:00,42.5,37.7,30.15,East,84,0.0,0.0,83,0.00,,,0.00,WeatherCatV1.24B11,2014-01-09 07:21:00,
2014-01-08 23:26:00,42.1,37.6,30.16,East,85,0.0,0.0,84,0.00,,,0.00,WeatherCatV1.24B11,2014-01-09 07:26:00,
2014-01-08 23:31:00,42.0,37.8,30.15,East,85,0.0,0.0,85,0.00,,,0.00,WeatherCatV1.24B11,2014-01-09 07:31:00,
2014-01-08 23:36:00,42.0,37.8,30.16,East,85,0.0,0.0,85,0.00,,,0.00,WeatherCatV1.24B11,2014-01-09 07:36:00,
2014-01-08 23:41:00,42.1,37.9,30.16,East,85,0.0,0.0,85,0.00,,,0.00,WeatherCatV1.24B11,2014-01-09 07:41:00,
2014-01-08 23:46:00,41.9,37.4,30.15,East,85,0.0,0.0,84,0.00,,,0.00,WeatherCatV1.24B11,2014-01-09 07:46:00,
2014-01-08 23:51:00,42.0,38.1,30.15,East,85,0.0,0.0,86,0.00,,,0.00,WeatherCatV1.24B11,2014-01-09 07:51:00,
2014-01-08 23:56:00,42.2,38.3,30.15,East,85,0.0,0.0,86,0.00,,,0.00,WeatherCatV1.24B11,2014-01-09 07:56:00,